Weather in Barabinsk

Russia / Novosibirsk Oblast     55°21′01″N   78°20′30″E
temp.,
°C
wind,
m/s
gust,
m/s
humid.,
%
clouds,
%
prec.,
mm/h
press.,
hPa
HPBL,
m
16 may, sun
sun1601:00+17wsw117293 2.9 101611
04:00+14w38805 0.0 1015127
07:00+15wsw411785 0.0 1014252
10:00+23w464581 0.0 1013458
13:00+25w684014 0.0 10121429
16:00+27nw81135100 0.0 10113068
19:00+25nw8104399 0.1 10112105
22:00+16nnw38845 0.5 1013172
17 may, mon
mon1701:00+16n018674 0.5 101411
04:00+14ene119284 0.1 101512
07:00+14ne239522 0.1 1016117
10:00+18n327740 0.0 1017575
13:00+22nw34475 0.0 10161285
16:00+26w46395 0.0 10151897
19:00+25ssw55457 0.1 1012454
22:00+20n3466100 0.2 101264
18 may, tue
tue1801:00+19se446795 0.4 101051
04:00+16ssw46745 0.4 100882
07:00+16wnw487222 0.5 1008179
10:00+22nw695227 0.0 1008839
13:00+24wnw81138100 0.0 10081901
16:00+25nw7103513 0.0 10082534
19:00+25nw610350 0.0 10052259
22:00+18ene687523 1.3 1005308
19 may, wed
wed1901:00+15ne3488100 2.3 100486
04:00+13wnw4109077 0.3 1002340
07:00+14n6892100 1.1 1001801
10:00+9n91489100 2.4 10051031
13:00+11nne81474100 3.8 10091372
16:00+12nne71062100 0.7 10121461
19:00+13nne69478 1.1 10141719
22:00+10nnw486338 0.4 1016346
20 may, thu
thu2001:00+7n5116890 0.5 1018436
04:00+5n410705 0.0 1020331
07:00+4n596510 0.0 1022473
10:00+7n794092 0.0 10231551
13:00+8n7935100 0.0 10231812
16:00+10n7103353 0.0 10232264
19:00+10nne573395 0.0 10232045
22:00+7ese114696 0.0 102510